Terminal Aerodrome Forecast
Issued by NWS Raleigh/Durham, NC

Home | Current Version | Previous Version | Text Only | Print | Product List | Glossary On
Versions: 1 2 3 4 5 6 7 8 9 10 11 12 13 14 15 16 17 18 19 20 21 22 23
000
FTUS42 KRAH 301420 AAB
TAFRDU
TAF AMD
KRDU 301420Z 3014/3112 04008KT P6SM SCT008 OVC017
      TEMPO 3014/3017 5SM -SHRA BR OVC008
     FM301700 03005KT 6SM -SHRA BR BKN025 BKN080
     FM310100 VRB04KT 5SM BR BKN015 OVC035=

USA.gov is the U.S. government's official web portal to all federal, state and local government web resources and services.